GFSNW_sfc_dewp_159.txt.gz
Dewpoint
53 53 53 52 51 50 48 40 40 45 44 39 39 37 37 37 35 34 33 33 27 25 26 24 23 23 26 30 26 27 22 21 21 21 21 22 18 17 15 14 12 18 15 16
53 53 52 52 51 50 46 38 41 43 41 36 35 36 34 34 34 35 29 29 30 32 29 29 28 32 34 39 38 36 26 22 19 19 20 21 18 16 15 16 16 17 16 16
53 53 52 52 51 50 47 41 40 40 40 39 38 34 32 29 32 31 30 28 32 32 31 30 31 34 36 37 37 56 38 24 21 20 20 23 23 24 18 15 16 15 16 15
53 53 53 52 51 50 45 44 42 41 38 37 38 37 32 31 30 30 30 29 32 31 37 33 34 34 33 35 42 38 36 29 36 31 27 26 25 24 24 19 18 18 19 19
53 53 53 52 51 50 47 42 40 41 39 39 34 34 32 32 32 31 30 31 32 33 30 32 31 31 32 34 30 31 35 35 38 34 34 32 25 25 26 25 24 21 27 29
52 52 53 52 51 48 42 44 43 41 39 37 34 35 35 34 35 33 33 32 32 32 31 30 29 30 32 30 29 28 35 32 35 34 37 35 27 26 24 25 28 28 27 28
52 51 52 52 52 49 43 43 43 40 35 38 37 38 36 35 37 34 34 35 33 34 35 30 32 30 30 29 29 29 28 30 38 36 35 28 28 35 35 28 29 34 35 36
51 51 51 52 52 51 45 44 42 41 37 39 38 37 37 37 37 36 37 37 36 36 32 28 26 28 27 28 30 28 29 30 31 33 34 34 35 38 37 35 34 39 39 45
51 51 50 51 52 51 45 43 44 42 39 37 40 38 39 36 36 37 36 38 39 37 31 28 26 26 28 28 31 33 31 32 32 36 33 31 34 41 44 39 33 42 42 52
50 51 50 50 51 51 47 44 44 44 40 42 41 38 37 38 40 38 37 39 37 40 35 31 29 28 32 29 29 28 35 35 30 32 33 34 44 48 48 32 34 41 45 48
50 50 50 50 50 51 47 44 46 45 43 42 44 42 40 41 40 38 39 37 37 38 36 37 37 36 38 37 36 37 38 37 37 34 32 31 48 48 39 44 48 45 48 53
50 49 50 50 50 51 48 41 44 46 44 41 45 44 44 43 42 39 39 38 38 38 39 40 40 38 39 37 34 41 37 42 39 42 40 42 49 50 52 52 51 48 49 52
49 49 49 50 50 50 49 43 44 44 41 41 40 41 43 45 44 43 38 39 39 37 40 39 41 38 42 36 38 39 42 46 42 41 39 47 49 48 53 53 53 53 54 54
50 49 49 50 50 50 49 43 43 45 44 41 38 42 40 39 41 42 42 39 38 37 37 35 35 37 40 38 41 41 41 45 42 42 45 47 50 53 53 54 55 55 57 57
50 49 50 50 50 50 48 45 44 45 43 39 39 41 41 42 41 40 42 42 40 37 35 36 37 39 37 38 39 37 44 42 42 41 45 47 47 50 55 54 55 56 56 56
50 50 50 50 50 49 43 43 47 48 51 45 38 40 41 41 42 43 40 40 39 38 37 37 38 38 37 34 35 38 42 48 47 45 50 53 52 54 55 55 56 57 57 57
51 52 51 49 50 44 39 42 49 49 46 44 39 37 40 41 44 44 45 45 44 42 41 38 37 38 42 40 36 38 41 44 46 48 50 50 52 52 53 56 56 56 57 57
51 51 51 50 50 48 43 44 47 46 43 43 39 37 40 44 45 43 46 44 44 43 41 43 40 42 41 38 38 38 40 41 40 42 47 48 51 54 55 57 56 55 56 57
51 52 51 46 42 40 46 51 49 46 43 39 42 37 37 44 43 44 45 44 40 43 41 40 41 39 38 39 41 42 44 47 47 49 51 53 53 53 54 55 54 55 56 57
50 45 44 43 47 49 52 47 46 45 45 41 38 39 37 38 40 41 41 42 40 38 41 44 40 39 41 41 42 44 48 50 51 51 50 50 52 53 53 54 55 57 57 58
45 45 45 48 51 48 47 45 43 43 42 43 43 43 39 43 42 43 42 39 40 38 40 45 44 42 46 50 51 52 52 52 53 54 54 53 53 53 53 54 55 58 58 57
45 45 45 44 44 45 43 42 43 42 42 46 45 47 47 46 45 41 42 40 41 38 46 44 41 46 50 50 51 52 52 53 55 56 54 55 54 54 54 55 55 58 58 58
46 46 42 42 42 36 39 35 40 41 44 46 46 44 45 48 47 44 43 41 41 48 42 39 44 49 50 50 51 52 54 55 55 55 57 55 54 55 54 54 55 57 58 59
43 42 35 38 35 39 39 40 42 43 44 43 43 43 44 46 45 46 43 44 46 37 37 40 47 49 51 52 52 51 52 53 54 55 56 55 54 54 56 57 57 57 58 59
43 42 36 37 38 37 38 40 46 46 46 44 44 42 44 43 44 44 42 41 38 39 42 46 49 51 52 52 52 51 52 52 53 54 54 56 54 54 55 58 59 58 57 58
41 39 37 39 37 37 38 39 43 45 45 48 45 42 42 42 44 41 41 37 38 43 48 50 51 51 52 53 52 52 52 52 53 53 53 56 55 54 55 58 57 58 57 57
39 38 40 39 38 37 38 39 39 45 47 42 44 41 41 45 40 39 44 42 45 48 48 50 51 52 53 53 53 53 54 53 53 54 55 55 55 55 57 57 57 58 59 60

GFSNW_sfc_dewp_162.txt.gz
Dewpoint
54 53 53 52 51 50 46 36 39 43 43 38 39 36 37 38 36 35 34 34 32 25 25 23 23 24 31 38 27 24 27 22 22 22 23 22 19 17 16 15 14 16 14 15
54 54 53 52 50 50 46 36 40 44 42 37 35 35 34 34 33 32 31 28 31 31 29 28 27 31 38 36 38 36 24 21 20 20 25 22 19 18 16 16 16 19 16 16
54 54 53 52 50 50 45 43 38 40 40 39 37 34 33 30 32 31 30 29 31 29 31 31 30 35 35 36 37 50 40 23 21 20 21 23 21 20 17 16 16 16 16 17
53 53 53 52 50 50 45 44 40 40 38 37 38 36 32 32 31 32 31 31 32 33 33 34 34 34 32 34 39 38 36 30 35 31 32 29 26 25 19 17 20 21 24 18
52 53 53 52 51 49 44 42 41 41 39 38 34 35 33 33 33 33 30 31 31 32 30 31 30 30 31 33 31 30 35 34 37 34 34 37 30 27 26 25 25 20 23 26
52 52 53 52 51 47 40 42 42 41 37 36 33 33 35 35 36 34 34 35 32 31 32 34 30 30 30 34 29 29 32 31 32 32 37 36 31 30 27 26 26 26 27 28
51 52 52 52 52 48 42 42 41 39 32 37 36 38 38 36 37 35 36 36 34 34 37 33 31 30 31 29 29 29 31 30 34 32 36 30 32 33 34 28 28 32 34 33
50 51 51 52 52 51 44 42 41 40 36 39 38 38 37 37 37 36 37 37 37 38 33 28 26 27 27 28 29 29 29 30 30 33 34 34 34 36 38 37 35 41 40 40
50 50 50 51 52 51 44 42 43 41 38 35 40 39 38 36 36 37 37 38 40 39 31 28 25 26 27 27 31 31 31 32 30 35 32 31 34 42 47 46 34 45 45 45
50 50 50 50 51 51 45 43 43 42 41 40 41 38 37 37 39 38 38 39 38 40 35 29 28 28 31 28 28 27 31 36 30 30 32 34 40 46 48 34 36 48 46 47
50 50 50 50 50 51 46 42 45 44 43 41 43 43 39 40 40 37 37 37 35 37 35 36 35 35 36 36 34 35 36 36 35 32 31 30 47 45 41 44 50 49 49 50
49 49 49 49 50 50 46 40 43 46 43 40 44 44 44 43 41 39 38 37 37 39 37 38 38 37 38 36 33 40 37 40 39 40 38 41 48 47 50 52 51 52 52 53
50 49 49 49 50 50 48 43 42 42 40 40 38 40 42 44 43 42 38 39 38 38 40 37 39 37 40 35 37 38 41 45 41 40 39 45 45 49 51 54 53 54 55 56
50 49 49 50 50 50 48 42 42 42 42 39 37 41 40 40 43 42 41 40 39 37 37 35 34 37 41 37 39 39 41 44 40 41 42 44 47 51 52 52 55 55 56 57
50 50 50 50 50 50 47 44 43 43 41 37 38 41 41 42 41 41 41 41 40 39 37 36 35 38 38 38 38 37 41 39 39 36 41 44 45 48 51 53 52 54 55 56
50 51 51 51 49 48 41 42 45 46 46 44 37 40 41 41 41 41 40 41 40 39 37 36 37 37 37 35 34 36 39 43 43 39 44 46 50 51 52 54 54 55 56 56
51 51 51 51 49 44 38 41 48 48 46 45 39 35 38 41 43 45 44 41 41 39 39 38 38 37 40 38 34 36 39 42 44 49 49 46 46 47 52 54 55 56 57 56
50 51 52 51 51 47 42 43 48 46 41 42 40 36 38 44 44 43 45 43 43 43 42 41 39 41 40 37 37 38 40 43 42 41 44 41 43 50 52 55 56 55 55 56
51 51 50 45 42 41 45 51 50 45 42 39 39 35 33 41 41 42 44 43 40 42 40 39 41 38 37 39 38 40 42 45 46 50 50 51 51 52 53 54 54 54 54 56
50 44 43 42 46 51 50 48 45 44 45 42 37 39 37 39 40 40 42 41 39 37 40 43 39 38 40 41 41 42 44 45 47 49 48 50 51 51 52 53 54 54 55 56
45 44 44 46 48 49 47 44 43 43 41 43 43 43 41 45 41 43 43 38 39 39 38 43 43 43 47 51 51 53 51 52 52 52 52 53 53 53 52 54 55 56 57 57
45 44 45 43 43 46 42 42 43 42 41 45 44 45 44 45 46 43 43 40 41 38 46 43 40 47 50 51 52 52 53 52 54 54 55 56 56 55 55 54 55 56 58 58
45 45 41 41 40 37 39 34 39 40 44 45 44 42 44 46 48 46 44 42 41 47 41 39 42 47 50 51 52 52 53 53 54 54 56 56 57 56 55 55 56 57 58 58
42 42 36 38 34 39 39 39 41 44 44 42 44 44 45 46 45 46 42 44 45 38 34 37 45 47 49 51 52 52 52 52 52 54 55 54 55 55 55 55 56 57 58 58
42 42 35 36 38 38 38 41 44 46 45 45 44 42 44 43 43 45 43 39 36 38 38 43 48 50 51 52 52 52 52 52 52 53 54 54 56 54 55 56 57 57 57 59
39 39 36 38 36 37 37 39 41 44 43 45 45 43 42 43 43 41 38 38 37 42 47 49 51 50 52 53 53 53 53 53 53 53 54 55 55 54 54 55 58 58 58 58
39 38 38 38 38 38 38 39 37 43 45 42 43 40 42 45 40 39 43 42 45 48 49 50 51 51 52 54 55 55 54 54 53 53 54 55 56 55 55 56 57 57 58 58

GFSNW_sfc_dewp_165.txt.gz
Dewpoint
54 54 53 52 51 50 47 34 41 42 44 41 40 36 37 38 35 34 34 34 33 30 26 25 25 24 28 36 28 26 27 25 25 23 24 23 22 23 22 20 24 20 20 18
54 54 53 52 50 50 46 41 42 45 43 38 37 37 35 34 31 31 31 29 30 32 30 30 27 32 37 34 37 30 27 26 25 23 23 23 23 23 23 21 22 27 21 21
53 53 53 52 50 50 47 45 40 42 41 41 37 36 35 31 32 31 32 31 32 32 32 34 32 34 34 35 37 47 40 27 28 22 26 28 28 23 21 21 21 23 21 23
53 53 53 52 50 49 48 43 41 41 39 39 37 35 34 32 33 33 33 32 32 33 32 35 34 34 34 33 41 39 36 32 30 30 31 32 32 30 25 21 24 24 23 25
52 53 53 52 51 48 44 43 41 41 40 39 36 35 35 33 33 33 31 31 32 32 36 34 34 32 35 35 34 34 36 36 39 35 33 34 34 34 30 25 22 24 25 27
51 52 53 52 52 46 41 44 44 42 37 37 35 34 36 34 36 35 35 36 34 31 33 36 37 35 31 31 34 34 35 36 36 32 34 35 31 33 33 30 28 26 26 30
51 51 52 52 52 48 45 44 44 41 30 36 35 37 38 35 36 37 36 37 36 36 39 37 32 30 30 30 31 31 36 37 36 32 35 30 31 35 37 35 35 30 31 35
51 51 51 52 52 51 46 45 43 44 35 37 34 36 36 37 38 37 37 37 39 41 37 34 32 29 30 30 30 30 31 35 32 30 29 31 32 33 37 40 37 45 44 44
50 50 50 51 52 51 46 45 46 44 41 33 38 38 39 35 36 35 38 40 41 40 37 33 32 28 30 29 31 32 31 34 32 32 29 27 30 32 46 46 36 47 48 48
50 49 50 50 51 51 48 44 46 46 41 42 42 37 36 38 38 37 38 39 37 40 36 32 30 29 32 29 29 32 33 35 31 30 30 30 38 43 48 39 39 49 50 50
49 49 49 49 50 51 48 43 46 44 40 39 42 42 40 39 39 34 36 34 37 39 37 36 35 33 34 35 34 34 34 32 31 34 32 30 46 45 43 48 50 52 52 53
49 49 49 49 50 51 47 42 44 46 41 39 43 43 43 43 40 40 40 38 39 39 41 44 44 42 40 41 33 43 40 41 38 40 35 45 48 44 45 49 52 50 52 53
50 50 49 49 50 50 49 48 46 43 41 39 40 39 42 44 42 41 37 38 39 39 42 38 43 42 44 39 40 41 44 48 46 43 41 44 44 42 50 51 51 51 51 52
50 50 50 50 50 50 48 46 44 44 40 38 36 40 41 42 42 44 41 38 41 40 40 37 36 34 41 36 40 41 40 46 42 43 43 41 38 48 49 48 49 49 52 52
50 50 50 51 51 49 48 46 45 43 40 38 37 41 41 42 42 43 43 41 39 39 37 37 36 37 38 37 37 35 37 39 38 35 41 45 44 43 44 48 48 48 52 52
50 51 51 51 49 46 41 42 47 45 45 43 39 40 42 41 42 42 42 41 41 40 39 39 39 39 39 35 33 36 37 41 40 40 42 41 44 45 47 48 48 48 52 53
51 51 51 51 51 48 39 40 48 48 48 44 39 35 38 41 42 45 42 42 43 41 40 39 41 40 39 38 37 39 39 41 43 43 44 44 44 46 47 45 44 50 53 54
50 51 51 52 51 49 45 45 48 47 42 42 39 35 37 43 45 47 47 45 43 43 41 43 41 42 42 38 39 40 42 43 43 45 45 43 44 44 46 46 49 50 52 53
50 50 49 47 45 41 46 51 51 44 43 41 40 35 38 40 44 45 46 48 44 44 42 42 43 40 40 40 43 43 43 44 44 48 48 48 48 48 50 52 52 52 53 53
48 45 44 43 47 51 50 48 46 45 46 43 39 38 39 41 44 45 43 46 47 43 42 46 42 39 44 45 48 50 51 51 51 50 50 50 49 50 51 51 52 53 53 54
46 44 44 47 48 50 48 44 43 42 41 42 43 42 41 46 43 44 47 45 44 40 42 44 44 43 49 51 51 52 53 53 53 53 53 54 55 54 54 54 54 55 55 55
46 45 46 46 46 46 42 42 44 42 40 46 44 46 45 45 46 45 46 43 44 39 47 42 41 47 50 50 51 51 52 53 53 53 53 54 55 56 57 57 56 56 56 57
47 46 42 41 42 37 39 34 39 41 45 47 48 45 46 48 48 47 45 40 40 47 41 39 42 46 48 49 50 51 53 54 54 53 53 54 55 57 57 57 57 57 57 57
43 41 36 36 36 38 39 40 42 44 46 47 46 45 47 48 46 46 41 44 45 37 34 36 43 46 47 50 53 54 54 54 54 54 54 54 55 56 57 57 57 56 57 57
42 42 35 37 38 39 38 40 45 46 49 45 45 45 45 45 44 45 43 40 36 37 38 43 47 51 51 52 53 54 55 55 55 55 55 55 56 57 57 56 57 58 58 58
40 39 37 39 38 37 37 38 41 42 45 48 46 43 43 43 43 40 38 38 37 40 46 49 51 51 51 52 54 55 56 56 55 55 56 56 57 57 57 57 58 58 59 58
38 37 40 39 38 37 37 39 37 43 49 44 45 40 41 45 40 39 43 41 45 46 49 51 52 52 52 53 54 55 57 56 57 57 57 57 57 58 58 57 59 59 60 59

GFSNW_sfc_dewp_168.txt.gz
Dewpoint
54 54 53 52 51 49 48 37 39 45 45 38 37 30 30 37 32 33 32 34 33 31 26 26 24 23 24 34 27 26 27 24 25 24 24 24 23 22 19 18 23 21 21 19
54 54 53 52 50 49 48 41 43 45 43 37 36 38 34 35 32 31 32 29 30 32 31 29 27 27 33 34 30 29 29 25 24 25 23 26 24 23 23 21 20 26 21 21
53 54 53 52 51 49 48 43 38 42 43 42 38 38 37 35 32 32 32 33 32 32 32 33 32 30 33 34 34 51 39 24 27 21 25 28 26 24 24 23 21 23 21 24
53 53 53 52 51 49 48 41 39 42 38 39 39 39 38 35 34 33 33 34 32 33 33 32 33 32 33 34 44 38 33 31 30 28 26 25 26 26 27 28 26 25 24 24
52 53 53 52 51 49 41 39 37 38 36 39 40 37 37 36 35 36 36 35 33 33 35 36 35 35 36 35 35 36 34 34 35 34 30 29 27 27 28 28 27 27 26 26
52 52 53 53 52 47 38 42 43 41 36 34 34 34 36 35 36 37 36 36 36 35 35 36 36 35 35 34 36 37 37 34 36 33 31 31 30 30 30 30 30 29 26 29
51 51 52 53 52 49 43 42 43 39 31 32 32 33 35 35 35 37 35 36 37 39 39 37 35 32 32 33 33 33 37 39 36 33 34 30 31 32 31 32 32 31 32 32
51 51 51 52 52 51 43 46 43 40 32 32 30 31 32 34 35 35 34 34 37 40 37 34 34 32 33 33 32 32 33 35 34 32 30 31 29 32 33 34 35 38 41 42
50 50 50 50 52 52 43 44 46 43 37 32 37 34 35 33 30 32 34 37 39 38 34 33 34 31 31 30 31 32 31 34 33 33 30 29 31 30 32 33 35 40 45 46
49 49 49 50 50 52 46 44 47 44 38 35 39 34 34 36 33 32 33 36 35 37 32 30 29 29 32 30 31 33 32 34 31 30 31 30 32 35 43 36 36 48 49 50
49 50 49 49 50 51 46 42 46 42 37 35 37 38 38 36 36 33 35 33 35 33 33 30 30 30 30 31 33 32 31 31 30 31 31 29 38 39 38 44 48 48 50 52
49 50 49 49 50 50 49 41 44 44 40 36 39 40 40 41 40 38 37 37 39 38 36 38 37 36 33 35 29 35 33 33 30 31 30 45 47 44 43 43 47 49 49 50
50 50 50 49 50 50 48 42 43 41 38 36 37 37 41 41 39 38 37 35 37 38 41 37 35 37 36 33 32 36 38 43 42 39 38 40 40 44 41 48 49 50 49 49
50 50 50 50 51 52 49 41 42 41 39 37 34 39 39 40 40 41 39 38 41 40 40 37 35 33 35 33 34 34 36 41 41 39 41 42 43 42 44 42 42 43 46 47
50 50 50 51 51 50 45 42 43 44 39 36 35 39 39 40 41 41 42 40 39 38 37 37 36 36 35 35 34 31 32 35 34 34 39 42 43 43 42 42 42 44 46 46
50 50 51 51 50 48 41 41 47 47 44 43 36 37 40 41 41 42 43 41 41 40 39 38 38 37 37 34 33 36 35 38 38 37 39 39 40 40 41 43 44 47 46 47
51 51 51 51 51 45 40 41 48 47 48 45 37 36 38 41 44 44 43 43 43 42 41 39 37 38 40 38 37 38 37 39 41 40 42 42 41 41 42 43 44 47 45 45
50 50 50 52 51 50 45 45 48 48 44 42 37 36 37 40 40 46 46 44 43 43 41 40 40 41 46 38 39 39 41 41 42 43 43 44 46 47 47 44 44 45 45 48
50 50 50 47 45 42 47 52 51 46 43 41 38 37 38 42 42 42 42 44 41 42 42 40 42 41 40 41 43 43 43 44 44 44 45 48 48 46 46 47 48 48 48 49
49 46 43 43 46 51 52 48 46 43 43 43 39 39 39 42 44 44 42 46 46 42 42 47 41 39 43 47 51 52 51 52 52 51 50 50 50 49 48 47 48 48 48 49
45 43 43 46 47 50 49 45 44 43 41 42 41 42 41 45 43 45 48 45 42 39 42 43 43 44 48 49 50 52 53 51 51 53 53 52 53 53 52 51 52 52 52 52
45 45 46 46 44 45 42 41 44 43 41 46 44 46 45 47 46 45 47 43 44 39 46 42 40 47 48 49 50 50 51 51 52 53 54 54 53 54 54 54 55 55 55 55
47 45 43 42 43 38 38 35 39 41 44 46 44 43 47 49 49 47 46 41 41 46 42 39 42 48 48 49 50 51 53 54 54 54 54 53 53 55 56 56 57 57 58 57
43 41 37 35 35 36 38 41 40 43 42 41 43 44 48 49 46 46 41 44 44 38 35 37 44 46 49 52 53 53 54 54 55 55 55 54 54 55 57 58 58 58 58 57
41 40 35 33 35 37 39 40 41 42 42 42 42 47 45 46 44 45 44 40 37 37 37 44 48 50 51 52 54 54 54 55 56 56 55 55 55 57 58 58 58 56 57 57
41 39 36 36 37 35 37 38 39 40 40 43 47 44 43 42 43 40 39 39 36 41 45 48 52 51 51 52 54 54 55 56 57 57 57 57 57 57 58 58 57 59 58 58
38 36 37 36 36 36 36 38 39 39 40 37 44 40 40 45 42 40 43 41 43 45 46 49 53 56 56 56 57 57 57 57 58 57 57 58 59 58 58 58 59 58 59 60

GFSNW_sfc_dewp_171.txt.gz
Dewpoint
54 54 54 52 51 50 46 41 37 41 41 36 34 31 30 33 27 31 27 29 31 30 27 25 23 23 24 25 24 25 26 23 25 24 24 23 23 24 23 19 24 20 19 18
54 54 53 52 51 50 45 39 37 43 40 35 35 36 34 33 30 30 29 28 26 27 29 30 27 24 30 29 27 27 26 24 24 24 22 24 24 24 22 21 19 26 20 20
54 54 53 52 51 50 47 41 35 40 39 37 38 37 36 34 33 31 31 31 32 30 28 29 31 28 28 30 28 54 41 26 26 21 25 26 28 25 24 21 20 23 21 24
53 53 53 52 51 49 47 41 38 39 37 38 38 36 36 35 34 33 33 34 32 32 33 30 28 30 30 32 43 36 32 29 29 25 24 24 24 25 26 26 26 26 25 25
52 53 53 52 51 48 43 37 37 37 33 35 36 36 34 34 34 34 35 34 32 32 34 35 34 35 34 32 34 35 32 33 33 31 28 27 27 26 26 25 25 26 26 27
52 52 53 53 51 48 38 38 40 39 37 32 32 32 34 35 36 36 36 36 37 36 36 37 37 36 36 35 36 37 36 32 33 32 30 30 29 29 28 28 28 27 27 29
51 51 52 53 52 50 43 41 41 39 33 32 29 31 32 33 35 36 35 35 37 38 40 38 35 33 34 35 34 32 36 38 36 33 34 31 32 30 30 29 30 29 31 31
51 51 51 51 53 52 44 42 41 39 34 31 30 30 31 32 34 34 33 32 35 36 37 35 34 32 33 32 32 33 33 35 33 32 31 32 30 30 29 30 31 32 34 35
50 50 50 50 52 52 46 43 44 41 37 34 36 33 33 32 31 30 32 35 36 35 32 31 34 30 32 30 31 31 30 35 32 32 31 30 31 29 34 34 31 31 33 41
49 50 50 50 50 52 47 44 46 42 38 34 37 33 36 35 33 30 30 33 35 34 31 28 28 28 32 29 30 32 32 33 31 30 30 29 31 31 32 34 33 47 47 49
49 50 50 50 50 51 47 42 47 42 37 36 35 34 36 35 34 31 35 33 32 29 32 29 28 28 29 29 32 32 33 34 32 30 30 30 32 31 33 39 45 47 48 49
49 50 50 50 50 50 49 42 44 45 40 37 38 37 37 37 37 37 36 35 39 37 35 33 32 30 30 33 28 33 31 32 30 31 33 46 44 44 43 42 43 45 48 48
49 50 50 50 50 51 49 43 42 41 38 36 34 34 39 39 38 35 35 35 36 36 39 38 35 35 33 30 32 36 38 40 39 43 37 39 44 44 43 42 45 47 46 45
50 50 50 50 51 51 50 42 41 41 39 34 34 37 38 39 38 40 37 36 38 38 38 36 33 31 34 33 34 34 33 36 39 42 43 44 38 42 44 42 44 43 44 44
49 50 50 51 51 51 47 42 43 44 41 36 35 35 37 39 40 39 40 40 38 37 35 34 33 34 35 35 34 31 31 34 30 31 39 42 44 43 44 44 43 43 44 44
50 50 51 51 51 51 44 41 46 46 44 41 36 36 39 41 42 41 41 41 41 39 37 36 36 36 35 35 34 36 35 37 38 36 37 37 38 38 39 41 41 41 42 44
51 51 51 51 51 46 42 42 47 48 49 44 38 36 39 40 43 42 42 42 40 39 38 37 37 39 39 37 37 39 38 40 41 39 39 39 38 38 39 41 41 42 41 42
51 51 51 51 51 50 45 46 47 48 46 42 37 35 36 41 38 49 45 42 42 42 41 40 39 39 46 39 41 41 43 42 40 40 40 39 41 42 44 44 44 43 42 42
51 50 50 48 46 42 47 52 50 46 44 41 39 37 39 41 40 42 42 54 45 44 40 42 41 39 39 41 47 48 50 50 49 48 44 42 42 44 46 45 44 44 43 43
51 47 44 43 45 53 51 48 46 43 42 42 40 40 38 41 40 45 46 49 48 44 42 48 44 42 48 48 48 49 50 51 51 49 48 50 50 50 50 49 48 45 44 46
46 44 42 45 49 48 48 46 45 43 41 42 41 41 44 44 46 46 49 46 45 41 45 44 44 45 47 48 50 51 50 50 51 50 50 50 52 53 51 50 52 51 50 50
45 44 45 44 43 44 42 41 44 41 40 45 41 41 44 51 48 46 48 43 45 40 46 43 40 47 49 50 50 51 51 51 51 52 51 50 52 53 54 54 54 54 53 54
47 45 42 41 41 39 36 34 36 39 42 44 42 42 47 51 50 48 46 41 41 46 42 40 43 48 49 49 51 52 54 54 55 55 55 54 54 55 55 55 55 56 57 56
42 39 38 36 34 34 35 40 40 41 41 41 38 45 50 50 47 46 41 43 45 39 37 39 42 49 50 51 53 53 54 55 55 55 55 55 55 55 56 57 58 58 58 57
41 37 35 33 32 34 36 38 40 42 40 38 39 51 48 47 44 45 43 40 39 39 39 46 48 50 51 52 53 53 54 55 56 57 57 56 55 57 57 57 58 59 59 58
39 37 34 33 32 33 36 37 39 40 38 41 47 45 43 42 44 41 39 39 39 41 45 46 52 55 55 56 56 57 57 57 57 58 57 58 57 57 59 59 60 59 59 59
39 35 34 33 33 34 36 37 38 40 36 37 39 41 41 44 42 41 44 42 42 45 47 55 56 57 57 58 58 57 57 57 59 59 59 59 59 59 59 59 60 60 59 60

GFSNW_sfc_dewp_174.txt.gz
Dewpoint
54 54 54 53 51 49 45 43 36 41 38 35 34 32 31 34 27 27 29 26 25 29 29 27 24 23 22 22 24 25 25 23 24 24 24 24 23 24 23 22 27 22 21 19
54 54 53 52 51 50 45 41 37 42 39 33 34 35 32 31 32 31 27 28 27 26 25 28 29 28 25 26 24 27 26 25 24 23 22 23 23 23 22 21 21 31 19 19
54 54 53 52 51 50 46 44 35 39 40 36 34 35 36 34 35 32 32 31 31 31 30 29 30 30 27 28 27 55 40 26 28 21 25 24 25 23 26 22 21 21 20 22
54 54 53 52 51 49 47 43 37 38 35 37 38 39 37 34 33 34 34 33 32 31 31 31 30 28 27 29 45 34 29 29 29 26 25 24 23 23 25 27 26 24 25 26
54 54 53 53 51 49 45 38 37 38 35 34 33 34 33 31 31 33 33 34 34 33 34 33 33 35 37 34 33 34 32 33 32 29 26 25 25 25 24 25 25 25 25 25
52 52 53 52 52 48 42 41 39 38 39 34 31 32 33 34 36 36 35 35 35 35 37 38 38 36 36 36 37 36 35 34 34 31 29 29 27 28 28 28 28 28 26 29
52 51 52 52 52 51 45 43 40 40 36 34 31 30 31 31 33 34 34 36 36 36 37 36 35 35 34 34 34 34 36 42 38 35 35 31 31 32 31 31 30 30 31 32
52 51 51 52 52 52 44 45 41 39 36 34 33 33 32 32 34 32 32 31 33 34 33 33 34 31 33 32 31 31 33 37 34 33 31 32 31 31 30 32 33 32 32 32
51 50 51 51 52 52 45 45 46 42 38 35 36 34 34 30 30 31 30 32 34 34 33 31 33 29 31 29 30 30 30 35 36 34 31 30 34 31 32 34 33 36 39 39
50 50 51 51 51 51 47 45 48 42 40 37 37 34 35 36 35 32 31 33 33 34 31 27 26 26 30 29 30 33 34 37 33 32 33 31 32 31 32 33 37 44 45 49
49 50 50 50 51 51 48 45 48 43 39 38 37 36 36 35 34 32 35 33 34 31 29 29 29 27 28 28 31 31 33 33 35 38 33 32 42 38 39 46 44 42 47 49
49 50 51 51 51 51 51 44 44 44 41 38 39 38 38 36 35 35 36 36 37 38 36 35 35 34 30 34 28 34 31 34 36 37 36 45 42 41 45 48 44 43 47 48
49 50 50 50 51 51 50 43 43 42 39 36 34 34 37 37 35 32 32 33 35 36 37 36 36 38 34 30 29 33 35 39 37 40 39 40 43 45 45 46 48 51 50 49
49 50 50 50 51 51 51 43 43 41 40 36 33 36 36 38 36 37 37 35 35 36 38 36 34 32 33 29 32 33 34 38 38 38 38 40 40 41 44 46 51 53 55 48
49 49 50 51 52 52 48 45 43 43 41 37 36 36 36 35 38 38 38 38 38 36 34 34 33 33 33 33 33 31 31 35 30 30 42 45 42 41 44 46 49 54 54 48
49 50 51 51 51 52 45 43 46 46 44 41 35 37 36 38 40 40 38 38 39 38 36 34 34 36 37 34 33 35 34 38 42 40 39 40 40 38 37 41 41 42 42 43
50 51 51 51 51 47 43 43 47 48 47 43 39 37 39 39 39 43 44 43 41 39 38 37 37 38 39 36 36 38 39 41 45 42 42 42 38 39 38 38 39 40 38 40
51 51 51 51 51 49 45 46 48 46 44 44 38 37 38 40 41 42 44 42 43 44 42 41 42 40 41 38 40 43 46 49 45 45 46 44 43 42 45 44 43 42 41 43
51 51 51 49 46 43 49 51 49 47 44 41 40 37 39 42 42 41 48 55 45 44 41 41 44 41 43 45 46 47 49 50 49 49 48 48 45 44 46 45 45 49 48 45
50 48 45 44 47 53 51 48 46 45 44 43 40 40 38 43 45 45 51 52 49 46 49 49 48 43 49 48 49 48 49 49 51 49 48 47 48 47 47 49 51 51 51 53
46 44 43 45 53 47 47 46 44 42 40 42 41 43 44 48 47 47 50 44 45 42 45 45 43 42 49 49 49 50 50 51 52 52 51 50 51 51 50 49 51 52 52 52
44 43 44 43 43 43 43 41 42 40 40 46 44 43 45 54 49 48 48 43 45 41 46 43 40 44 50 50 50 51 52 52 52 53 54 53 53 51 52 53 52 53 53 55
47 45 43 41 41 38 35 34 37 42 43 47 41 41 53 52 47 47 46 42 41 45 42 40 43 46 51 51 51 51 53 53 54 54 55 56 55 56 55 54 57 56 57 56
43 41 36 36 35 34 34 39 43 40 41 40 40 47 49 49 47 47 41 45 45 40 38 40 47 48 50 51 53 52 53 54 54 55 56 56 56 57 58 58 59 58 58 58
39 38 35 33 33 31 34 38 40 40 40 39 39 52 52 47 44 45 43 41 39 40 40 46 46 50 54 55 56 56 55 56 56 56 56 56 56 57 58 59 59 59 59 60
38 37 34 33 31 33 36 38 39 40 39 39 47 47 43 42 43 41 40 39 38 40 47 49 54 55 56 56 57 56 56 57 58 58 58 58 59 58 59 59 60 61 61 61
36 34 33 32 33 32 33 38 38 41 41 36 38 39 41 43 41 41 43 42 46 48 51 54 55 56 56 56 56 56 58 58 58 59 59 60 60 60 59 59 60 61 62 62